FW1168 Weather Reports


Display with metric or nautical units.
time (UTC)temp
F
wind
direction
speed
MPH
gust
MPH
rain 1hr
in
rain 24hr
in
rain mn
in
humidity
%
barometer
mb
20260503211557 71 244 5.0 13.0 0.00 0.00 0.00 35 1003.7
20260503210059 71 248 6.0 17.0 0.00 0.00 0.00 34 1003.7
20260503204607 71 240 8.0 15.0 0.00 0.00 0.00 35 1003.9
20260503203100 71 220 5.0 15.0 0.00 0.00 0.00 37 1004.0
20260503201553 71 259 5.0 16.0 0.00 0.00 0.00 35 1004.3
20260503200051 71 309 6.0 15.0 0.00 0.00 0.00 36 1004.3
20260503194605 70 267 5.0 16.0 0.00 0.00 0.00 37 1004.4
20260503193046 69 283 4.0 12.0 0.00 0.00 0.00 40 1004.5
20260503191544 69 244 6.0 17.0 0.00 0.00 0.00 41 1004.5
20260503190057 69 273 6.0 15.0 0.00 0.00 0.00 40 1004.6
20260503184540 69 326 4.0 21.0 0.00 0.00 0.00 41 1004.9
20260503183037 68 232 5.0 12.0 0.00 0.00 0.00 43 1004.9
20260503181535 67 297 5.0 10.0 0.00 0.00 0.00 44 1005.2
20260503180032 67 5 3.0 10.0 0.00 0.00 0.00 45 1005.2
20260503174528 66 252 3.0 11.0 0.00 0.00 0.00 45 1005.3
20260503173034 65 244 3.0 8.0 0.00 0.00 0.00 46 1005.4
20260503171522 64 230 3.0 11.0 0.00 0.00 0.00 47 1005.5
20260503081555 53 163 0.0 2.0 0.00 0.00 0.00 57 1008.0
20260503071542 54 161 1.0 3.0 0.00 0.00 0.00 58 1008.6
20260503054533 57 252 1.0 6.0 0.00 0.00 0.00 57 1010.4
20260503053020 58 225 1.0 3.0 0.00 0.00 0.00 51 1010.3
20260503051518 58 225 2.0 3.0 0.00 0.00 0.00 51 1010.2
20260503050017 58 225 1.0 4.0 0.00 0.00 0.00 50 1010.3
20260503044532 58 224 2.0 4.0 0.00 0.00 0.00 50 1010.4
20260503043014 57 201 1.0 3.0 0.00 0.00 0.00 49 1010.5
20260503041512 57 202 1.0 2.0 0.00 0.00 0.00 49 1010.8
20260503040010 57 203 1.0 3.0 0.00 0.00 0.00 48 1010.9
20260503034508 57 207 2.0 3.0 0.00 0.00 0.00 48 1011.3
20260503033005 57 209 1.0 2.0 0.00 0.00 0.00 49 1011.5
20260503031503 56 209 0.0 3.0 0.00 0.00 0.00 49 1011.8
20260503030004 56 211 1.0 3.0 0.00 0.00 0.00 49 1011.9
20260503024502 57 215 1.0 2.0 0.00 0.00 0.00 48 1012.0
20260503023001 57 215 1.0 3.0 0.00 0.00 0.00 47 1012.0
20260503021605 57 219 0.0 0.0 0.00 0.00 0.00 47 1012.0
20260503020105 58 219 0.0 0.0 0.00 0.00 0.00 45 1012.0
20260503014600 58 219 0.0 3.0 0.00 0.00 0.00 45 1012.0
20260503013103 58 221 1.0 2.0 0.00 0.00 0.00 44 1012.1
20260503011607 59 221 0.0 1.0 0.00 0.00 0.00 43 1012.2
20260503010100 59 222 1.0 4.0 0.00 0.00 0.00 42 1012.3
20260503004556 59 225 0.0 2.0 0.00 0.00 0.00 41 1012.3
20260503003054 60 227 1.0 4.0 0.00 0.00 0.00 41 1012.5
20260503001554 60 229 0.0 3.0 0.00 0.00 0.00 41 1012.7
20260503000107 60 229 1.0 7.0 0.00 0.00 0.00 40 1012.8
20260502234550 61 234 4.0 7.0 0.00 0.00 0.00 39 1012.9
20260502233048 60 230 3.0 7.0 0.00 0.00 0.00 40 1013.2
20260502231612 61 233 4.0 7.0 0.00 0.00 0.00 39 1013.4
20260502230046 61 257 6.0 12.0 0.00 0.00 0.00 39 1013.6
20260502224555 61 253 6.0 13.0 0.00 0.00 0.00 39 1013.7
20260502223044 61 239 4.0 11.0 0.00 0.00 0.00 39 1013.8
20260502221544 61 232 3.0 12.0 0.00 0.00 0.00 38 1013.9
20260502220047 61 235 5.0 13.0 0.00 0.00 0.00 38 1014.0
20260502214541 61 239 6.0 12.0 0.00 0.00 0.00 38 1014.1
20260502213037 61 263 3.0 16.0 0.00 0.00 0.00 38 1014.5